TimeCDT,TemperatureF,Dew PointF,Humidity,Sea Level PressureIn,VisibilityMPH,Wind Direction,Wind SpeedMPH,Gust SpeedMPH,PrecipitationIn,Events,Conditions,WindDirDegrees,DateUTC
12:00 AM,55.4,50.0,82,30.16,9.0,North,3.5,-,N/A,,Mostly Cloudy,350,2013-08-03 05:00:00
1:00 AM,32,30,89,30.15,,NW,8.1,,,,,320,2013-08-03 06:00:00
1:00 AM,53.6,50.0,88,30.16,9.0,NNW,3.5,-,N/A,,Mostly Cloudy,330,2013-08-03 06:00:00
2:00 AM,51.8,48.2,88,30.18,9.0,WNW,2.3,-,N/A,,Partly Cloudy,300,2013-08-03 07:00:00
3:00 AM,50.0,48.2,94,30.19,9.0,NW,3.5,-,N/A,,Clear,310,2013-08-03 08:00:00
4:00 AM,53.6,48.2,82,30.19,9.0,NW,4.6,-,N/A,,Clear,310,2013-08-03 09:00:00
5:00 AM,53.6,50.0,88,30.20,9.0,NNW,3.5,-,N/A,,Clear,330,2013-08-03 10:00:00
6:00 AM,48.2,46.4,93,30.22,9.0,NNW,3.5,-,N/A,,Clear,330,2013-08-03 11:00:00
7:00 AM,31,29,88,30.18,,NNW,4.6,,,,,330,2013-08-03 12:00:00
7:00 AM,51.8,50.0,94,30.22,9.0,NW,2.3,-,N/A,,Clear,310,2013-08-03 12:00:00
8:00 AM,57.2,51.8,82,30.23,9.0,NW,3.5,-,N/A,,Clear,320,2013-08-03 13:00:00
9:00 AM,60.8,51.8,72,30.24,9.0,North,3.5,-,N/A,,Clear,10,2013-08-03 14:00:00
10:00 AM,64.4,48.2,56,30.24,9.0,NNW,4.6,-,N/A,,Clear,330,2013-08-03 15:00:00
11:00 AM,68.0,44.6,43,30.24,9.0,NNW,3.5,-,N/A,,Clear,330,2013-08-03 16:00:00
12:00 PM,69.8,41.0,35,30.24,9.0,North,6.9,-,N/A,,Clear,350,2013-08-03 17:00:00
1:00 PM,31,29,92,30.18,,ENE,5.8,,,,,60,2013-08-03 18:00:00
1:00 PM,69.8,42.8,38,30.23,9.0,NNW,6.9,-,N/A,,Clear,330,2013-08-03 18:00:00
2:00 PM,69.8,42.8,38,30.23,9.0,Variable,4.6,-,N/A,,Clear,0,2013-08-03 19:00:00
3:00 PM,71.6,42.8,35,30.22,9.0,Variable,5.8,-,N/A,,Clear,0,2013-08-03 20:00:00
4:00 PM,73.4,44.6,36,30.22,9.0,WSW,10.4,17.3,N/A,,Scattered Clouds,240,2013-08-03 21:00:00
5:00 PM,71.6,46.4,41,30.21,9.0,SW,9.2,-,N/A,,Clear,230,2013-08-03 22:00:00
6:00 PM,71.6,46.4,41,30.20,9.0,SW,9.2,-,N/A,,Clear,230,2013-08-03 23:00:00
7:00 PM,35,31,78,30.18,,East,3.5,,,,,90,2013-08-04 00:00:00
7:00 PM,69.8,46.4,43,30.20,9.0,SW,11.5,-,N/A,,Clear,230,2013-08-04 00:00:00
8:00 PM,68.0,46.4,46,30.18,9.0,SW,6.9,-,N/A,,Clear,220,2013-08-04 01:00:00
9:00 PM,64.4,46.4,52,30.17,9.0,SSW,6.9,-,N/A,,Clear,210,2013-08-04 02:00:00
10:00 PM,60.8,48.2,63,30.17,9.0,SSW,5.8,-,N/A,,Clear,210,2013-08-04 03:00:00
11:00 PM,59.0,51.8,77,30.16,9.0,SSW,4.6,-,N/A,,Clear,200,2013-08-04 04:00:00